Temp
18 17 17 17 18 19 19 20 20 20 20 21 21 21 21 22 22 18 27 28 27 26 26 29 29 31 32 35 36 37 35 36 38 38 39 37 37 37 37 36 35 35 35 32 30
18 18 18 17 18 19 19 20 20 20 20 21 21 22 22 21 19 27 27 27 26 26 28 31 32 33 34 35 36 35 35 37 39 39 39 38 38 36 35 35 35 34 34 31 31
17 18 18 19 19 19 20 20 20 20 21 21 22 22 22 20 26 32 27 26 26 26 29 32 34 34 34 36 36 36 35 38 39 39 39 38 37 37 35 35 35 34 33 32 31
17 18 19 19 19 20 21 21 21 21 22 22 22 22 21 19 32 29 27 27 26 26 29 32 34 34 34 35 36 35 37 37 39 38 38 37 38 36 36 36 37 36 33 33 32
17 18 19 19 19 20 20 20 20 21 22 22 22 22 18 28 32 27 28 27 25 27 31 33 33 34 34 36 36 36 36 37 38 37 37 38 37 37 36 37 37 36 33 33 33
17 18 19 19 19 20 19 20 21 21 21 22 22 21 21 31 30 29 28 26 30 31 33 34 34 35 35 35 36 36 36 37 37 37 37 36 36 37 37 36 36 36 34 33 33
18 18 19 20 20 19 20 21 21 21 22 22 22 18 28 31 29 29 29 30 31 31 33 33 34 34 34 35 36 36 34 36 36 37 36 36 35 36 38 37 35 35 34 34 33
17 18 19 20 21 20 21 21 20 21 22 22 21 19 31 29 29 29 30 30 30 30 31 32 32 34 34 36 35 34 35 34 37 37 36 35 34 37 37 37 35 34 34 34 33
17 18 19 20 21 21 20 19 19 20 21 21 19 25 31 27 30 30 30 31 31 31 31 31 32 33 34 33 34 34 34 35 36 37 36 35 34 38 38 36 35 34 34 34 33
17 18 19 21 22 22 20 18 18 19 20 19 24 28 31 32 31 30 31 31 32 32 32 32 33 33 34 34 34 35 34 35 36 37 35 36 35 37 37 36 35 35 34 33 33
17 19 20 21 22 22 18 17 23 26 27 30 31 31 32 32 30 31 31 31 33 32 32 32 32 33 35 35 35 34 34 35 36 36 35 35 35 36 36 35 35 35 34 33 31
18 19 21 22 22 23 22 30 27 27 30 31 30 31 30 31 31 32 31 31 32 32 33 32 32 35 34 34 33 33 33 34 35 35 34 35 35 36 37 35 35 35 35 34 31
18 20 21 22 23 23 27 26 25 25 29 32 32 32 31 31 32 32 32 33 32 32 33 32 34 33 32 33 32 33 33 34 34 35 35 35 34 35 36 36 36 35 35 35 33
18 20 21 22 21 26 27 25 25 25 30 31 32 32 32 33 31 34 33 34 33 32 33 33 34 32 32 32 33 32 35 34 33 33 33 35 33 35 36 36 36 35 35 35 34
19 20 21 22 24 28 25 25 25 26 29 31 32 32 33 32 33 32 33 33 32 33 33 33 32 32 32 33 34 33 34 33 33 33 33 34 33 35 37 35 36 36 36 35 35
19 21 21 22 24 25 25 25 25 29 29 31 32 32 33 33 33 33 32 33 34 33 33 33 34 33 33 33 33 34 32 33 33 33 32 33 34 35 36 36 36 36 37 36 35
19 21 21 20 27 25 25 28 29 30 30 30 31 32 32 32 32 32 31 31 31 30 31 33 33 34 33 32 34 33 32 31 31 32 32 35 34 34 36 37 37 37 37 37 35
20 20 21 22 24 24 26 29 28 30 30 30 30 31 31 31 32 32 32 31 31 31 31 32 31 33 33 33 33 33 32 31 30 31 33 35 33 35 37 37 37 37 37 37 35
20 22 24 24 23 24 28 28 30 30 30 30 31 30 30 31 30 31 31 31 30 30 29 30 31 33 33 33 33 32 32 34 32 33 32 34 35 36 36 36 36 37 37 36 36
17 25 26 24 23 25 28 27 29 29 28 29 29 30 30 30 30 30 30 29 29 30 30 30 29 32 32 32 33 32 34 31 32 29 29 32 33 34 35 35 36 36 36 37 36
19 27 25 24 25 27 28 29 28 28 28 28 29 29 29 29 29 30 30 28 28 29 30 30 29 30 32 32 31 31 31 31 29 31 30 30 32 34 32 34 35 35 36 32 31
23 27 25 25 27 29 29 28 17 27 27 28 28 28 28 28 28 29 29 28 26 28 28 29 27 28 30 32 32 31 30 31 30 29 30 29 31 36 34 35 35 35 36 26 18
24 26 25 25 27 28 26 26 27 26 27 27 27 27 27 27 26 27 28 27 26 27 27 27 27 27 28 30 31 29 31 30 29 28 28 29 30 34 31 28 34 32 33 33 21
23 25 27 26 26 25 26 26 25 25 26 25 26 26 26 26 27 26 27 26 25 26 21 23 25 26 27 29 29 29 29 30 29 27 28 29 31 32 33 31 33 31 31 32 33
23 22 21 25 25 24 24 25 25 24 25 25 25 25 25 25 26 26 27 27 26 21 23 24 24 26 27 28 28 28 28 28 28 29 28 29 29 31 31 31 32 32 30 29 30
20 21 22 23 21 22 19 24 24 25 23 24 23 25 24 23 24 25 25 25 24 26 24 24 22 24 24 26 27 27 27 28 28 29 29 29 29 31 31 31 30 28 28 28 29
18 18 19 19 22 22 24 23 23 23 23 23 22 22 22 22 21 22 22 22 22 22 23 22 23 23 23 26 26 26 27 28 28 29 29 28 30 31 30 29 27 26 26 26 26
Height
812 809 807 805 803 799 796 793 791 789 786 785 783 780 777 775 772 771 766 762 762 762 763 763 766 764 762 755 750 744 763 758 740 739 729 728 738 735 738 746 748 750 752 766 778
812 809 806 803 800 796 793 790 788 786 784 782 779 778 775 772 769 763 760 760 761 762 762 758 758 758 757 753 747 754 760 747 718 717 724 725 734 739 751 751 754 759 759 771 778
811 807 803 801 797 794 790 787 785 782 781 779 777 775 772 770 764 750 758 760 759 761 760 755 750 751 756 747 746 748 757 728 722 720 718 726 738 731 749 752 747 760 765 772 776
809 805 801 798 794 790 786 783 781 779 777 775 774 772 770 772 760 754 757 757 759 762 762 756 752 753 753 752 740 755 739 733 722 721 728 735 730 742 741 735 726 747 761 769 773
809 804 800 795 791 787 783 779 776 774 773 772 771 770 771 761 749 755 755 756 759 761 757 753 753 750 754 743 741 746 740 730 726 728 733 729 738 739 740 732 738 743 760 766 770
806 802 797 793 788 783 779 775 773 772 770 769 768 768 770 759 753 755 757 758 757 757 752 749 747 743 744 741 741 736 739 731 728 729 733 741 739 737 734 732 741 744 757 762 766
804 799 795 790 785 780 776 773 772 771 769 767 767 767 761 751 754 755 756 755 755 754 751 750 746 748 744 745 733 735 750 736 735 731 735 734 748 743 728 728 744 747 754 757 764
802 798 793 788 782 777 775 773 772 771 769 767 767 770 748 754 755 755 755 755 755 756 754 751 752 746 743 732 741 749 746 754 730 729 731 740 756 731 725 731 742 748 751 754 760
802 796 791 786 779 775 774 772 772 770 769 767 767 763 750 755 754 753 753 752 754 755 755 754 751 747 743 753 754 747 757 749 735 719 733 742 750 722 712 728 741 744 747 752 756
800 794 788 782 777 775 773 772 771 770 767 768 765 762 750 746 749 751 752 752 752 752 754 753 749 752 746 747 761 746 748 740 737 724 732 736 742 721 721 729 737 738 744 749 756
797 791 785 780 777 775 773 773 772 766 761 751 750 748 745 747 751 751 751 750 747 750 756 750 756 756 739 735 734 741 741 739 726 721 736 740 735 730 723 733 734 734 741 747 759
794 789 784 780 778 775 771 761 768 769 756 748 750 746 750 748 748 745 749 752 751 756 744 754 759 732 734 740 749 748 750 748 730 728 738 734 736 722 718 728 730 731 734 740 755
793 788 783 779 778 774 771 771 770 768 760 746 744 743 745 748 744 743 745 744 748 752 747 753 738 738 748 749 756 749 750 744 743 730 734 736 739 730 718 717 723 725 726 730 739
792 786 782 779 780 773 769 771 769 768 758 753 743 742 743 740 749 736 740 739 742 749 742 744 731 745 749 750 745 754 729 740 744 748 759 730 762 730 722 721 720 721 724 725 729
790 784 781 778 776 768 773 770 769 767 774 749 743 739 736 742 737 741 739 738 748 743 745 743 747 749 749 743 735 743 734 742 741 747 748 740 754 729 706 720 716 712 711 718 721
788 782 780 778 776 774 771 770 768 771 778 754 742 743 741 735 738 737 742 739 731 740 739 737 728 738 738 733 739 732 745 744 742 743 763 743 742 732 716 710 708 704 699 704 714
785 781 779 778 772 773 770 766 768 766 750 758 752 744 743 747 743 741 749 754 753 764 758 740 738 729 732 743 732 739 753 767 764 756 755 717 732 726 700 695 697 698 690 682 697
783 781 779 778 775 773 769 765 779 754 754 751 751 748 755 750 746 743 746 751 749 751 751 749 755 736 730 738 739 737 745 758 773 757 742 708 740 719 694 691 688 688 689 687 694
782 779 776 776 775 773 766 770 755 754 752 755 751 756 755 753 755 749 748 750 757 755 767 756 754 732 733 732 734 739 747 728 749 735 745 723 710 695 690 694 693 692 690 690 693
783 775 770 774 774 771 766 769 759 756 759 757 762 756 758 757 761 754 753 761 764 756 751 753 771 736 735 735 730 737 724 754 742 775 774 739 732 721 703 700 693 691 689 682 680
783 769 771 772 771 764 764 754 758 760 761 764 761 763 758 762 760 757 754 765 766 763 755 755 767 757 741 742 741 744 746 740 751 742 757 757 737 703 720 706 700 693 686 689 680
781 771 770 771 768 754 754 759 778 763 763 762 763 762 766 765 766 763 763 764 771 766 768 759 773 775 756 731 731 744 748 742 758 760 744 753 736 687 700 697 694 695 689 700 713
781 770 769 770 766 756 764 766 766 769 766 767 767 766 766 771 782 768 764 767 775 773 774 769 772 781 765 746 735 750 740 745 750 756 765 764 743 693 712 719 700 706 703 698 720
785 772 764 765 767 770 768 766 771 773 770 770 767 770 771 773 767 773 771 769 776 775 788 785 783 781 776 754 750 754 748 746 753 768 758 748 735 718 712 717 700 707 709 711 702
785 782 789 768 774 777 776 771 771 775 775 773 773 774 773 780 771 771 769 767 772 785 783 782 789 773 763 757 755 758 757 753 756 751 761 748 742 730 722 717 713 711 718 717 714
798 794 786 781 788 785 788 774 774 770 781 776 783 771 779 785 778 776 773 777 782 770 779 779 792 780 779 766 762 762 754 752 748 745 744 742 740 723 718 718 724 730 731 728 720
806 804 800 789 780 782 771 775 778 778 779 782 782 784 785 784 788 784 788 785 786 788 785 787 786 785 782 763 758 761 749 743 738 731 733 743 729 719 722 729 737 740 737 738 733
Wind_Speed
12 13 14 14 15 14 13 14 14 14 14 14 14 16 17 18 14 6 10 3 10 9 8 15 18 20 18 17 18 10 13 14 14 11 4 12 9 7 4 5 5 6 2 23 23
13 14 15 16 16 15 15 15 15 15 15 15 14 15 15 16 12 13 7 10 9 11 11 16 16 17 15 17 15 14 13 19 13 2 10 14 6 13 7 8 9 10 19 23 24
14 15 17 17 17 16 15 15 16 16 16 15 14 13 13 9 10 9 7 4 8 17 14 13 12 14 18 15 18 17 18 16 8 6 10 6 5 10 9 13 13 13 19 20 22
17 18 18 18 19 18 16 15 16 18 17 15 12 10 8 6 2 7 1 5 12 13 14 13 11 14 17 20 18 18 18 20 16 3 10 8 3 8 10 5 16 16 19 18 19
19 20 20 20 21 20 17 17 15 13 13 12 8 6 3 8 1 3 3 6 11 11 15 14 13 13 16 17 16 21 20 16 18 5 10 12 7 10 13 5 4 20 19 19 18
20 21 22 21 23 21 18 13 11 10 9 6 5 6 8 10 3 4 7 11 8 11 12 14 10 13 13 16 16 13 19 19 14 13 10 11 12 9 11 15 9 18 18 18 18
22 23 23 22 22 20 12 13 6 6 4 1 7 5 10 4 3 8 11 7 7 6 7 10 6 5 12 10 13 16 13 16 13 13 14 10 15 12 13 17 13 15 17 18 18
24 25 24 24 21 15 10 6 4 3 1 3 5 6 1 4 5 9 7 5 6 4 6 5 9 13 11 4 4 14 15 16 19 16 8 10 17 18 17 13 16 17 16 15 18
25 26 25 24 18 10 9 2 2 1 2 4 4 8 7 5 10 12 9 8 5 3 5 6 10 14 11 11 13 13 15 18 20 17 13 15 18 19 22 16 16 16 15 16 16
28 27 26 22 13 7 6 5 4 1 2 5 7 7 8 4 6 6 10 5 7 7 8 10 8 10 12 13 13 9 16 15 8 15 11 17 16 15 5 11 15 16 16 15 15
30 28 26 19 6 6 4 3 6 6 13 6 5 3 3 4 5 11 13 10 7 11 12 13 10 11 16 11 10 11 13 11 9 2 4 14 15 18 15 12 15 17 16 16 14
30 28 25 13 2 2 7 3 6 6 3 4 1 3 2 3 6 10 14 11 10 13 10 6 12 5 5 5 8 11 13 13 9 4 11 15 16 16 15 14 15 15 16 18 18
29 26 20 5 2 2 6 5 5 5 7 7 4 3 1 11 7 14 15 14 9 12 9 15 5 9 6 10 11 13 14 12 13 8 11 15 13 14 13 11 14 15 16 18 20
29 24 13 0 4 1 1 6 7 3 5 7 6 5 9 4 6 1 14 11 8 12 11 9 2 5 11 10 10 12 14 10 12 12 12 19 13 17 20 18 17 17 18 18 18
29 20 5 6 7 2 7 8 4 4 5 3 5 4 5 7 5 10 11 10 15 7 7 6 6 10 11 11 8 7 3 7 10 12 14 16 9 15 9 13 13 17 20 19 18
30 13 2 1 3 6 8 5 4 7 2 6 2 3 10 3 6 5 9 9 9 9 10 13 5 5 12 0 7 12 6 13 12 13 14 18 17 14 13 17 13 14 17 18 18
24 5 1 3 6 10 9 6 6 6 3 5 3 4 1 1 5 6 10 13 9 9 13 16 14 13 7 11 14 12 11 10 12 12 13 17 17 16 5 6 10 10 13 20 19
15 2 4 3 8 9 8 8 6 6 0 3 4 4 6 4 3 6 8 8 2 10 13 11 7 4 5 11 12 12 12 11 15 11 12 7 6 11 11 11 11 8 12 9 16
7 2 5 2 7 7 7 8 4 2 4 3 7 9 8 5 6 4 5 9 6 6 9 7 5 5 2 8 10 13 10 13 13 15 12 12 11 6 11 11 12 13 14 13 13
10 7 2 6 5 9 7 9 1 3 3 5 11 3 5 5 8 6 11 3 1 4 6 5 11 3 3 7 14 12 12 8 9 14 16 15 11 10 8 8 5 12 12 13 18
6 5 6 5 6 7 9 3 3 4 4 3 3 4 3 3 6 4 1 8 2 4 8 7 8 15 7 12 5 5 12 7 9 11 11 12 8 14 5 12 9 12 17 13 13
6 4 5 5 7 4 5 1 3 5 4 5 5 6 5 0 6 5 4 3 4 6 8 6 6 11 16 17 6 9 16 17 10 14 8 13 14 12 5 13 8 11 11 11 18
6 5 2 4 6 7 3 4 2 5 4 3 5 4 2 4 4 6 4 10 4 5 8 7 5 9 15 17 13 10 13 4 9 9 16 15 12 8 9 19 25 21 22 17 27
5 3 4 2 3 8 2 9 8 2 3 5 5 2 6 9 8 5 6 7 1 3 4 4 9 12 13 17 14 10 5 10 11 9 13 15 21 17 18 8 21 14 14 20 22
2 3 4 2 4 5 4 5 9 7 7 5 6 9 8 9 10 11 10 7 6 7 8 4 12 15 16 18 15 17 17 17 18 18 17 18 20 17 18 19 21 19 20 21 22
5 4 1 5 5 7 4 7 10 4 3 6 7 5 5 9 11 14 8 2 9 5 6 2 9 10 16 16 18 20 21 21 22 21 21 19 20 17 17 11 16 19 20 18 21
5 2 4 1 5 7 7 5 3 3 4 8 6 6 9 4 9 9 9 11 12 9 9 9 10 10 16 15 16 18 16 20 19 19 17 17 17 13 9 10 13 17 13 16 18
Wind_Direction
353 348 342 334 327 322 319 315 312 308 307 308 309 311 312 309 308 265 250 237 218 237 202 194 205 221 230 238 233 246 264 255 250 238 153 121 178 173 177 123 189 84 114 138 150
353 348 340 333 325 322 317 312 306 303 303 302 304 306 309 310 297 252 229 255 236 202 211 184 200 211 220 225 223 239 238 251 277 235 259 124 232 147 176 194 159 132 110 138 152
355 350 345 341 333 324 316 308 304 299 296 296 299 300 304 320 270 100 168 245 220 192 232 218 216 207 225 222 218 225 249 256 278 281 283 96 190 139 213 179 170 162 139 152 160
356 352 348 341 336 329 318 307 301 294 290 289 290 289 290 273 345 110 298 267 193 194 225 232 235 213 228 222 228 234 242 262 284 138 259 250 237 178 215 300 147 152 150 160 166
357 352 347 343 339 331 319 309 301 295 291 285 270 253 268 223 94 110 15 151 168 197 221 215 223 228 233 234 224 230 249 233 255 281 257 252 226 262 189 165 242 144 158 169 174
356 352 347 344 339 332 323 316 312 308 306 283 226 191 244 246 75 154 151 155 188 214 219 218 224 231 262 262 241 225 239 258 256 232 232 250 232 228 235 146 202 155 172 175 178
354 350 345 344 338 332 326 321 324 323 330 177 176 178 259 20 126 154 156 186 194 240 243 236 274 244 221 256 255 251 267 234 243 238 245 228 247 217 240 170 178 171 182 176 185
353 349 345 342 338 332 328 326 329 345 37 117 158 233 28 136 168 170 174 166 187 224 275 232 232 245 264 264 242 235 235 244 218 219 211 218 242 207 223 207 181 187 187 186 186
351 347 345 341 337 329 332 285 322 107 111 133 207 229 128 155 197 196 202 178 187 206 220 206 216 232 198 236 224 209 244 218 263 171 230 205 249 251 198 182 204 190 201 193 183
349 347 346 343 336 326 326 252 256 138 256 235 268 237 172 153 124 170 184 196 189 177 170 200 218 222 227 218 232 241 207 252 229 183 205 234 234 253 157 183 215 194 203 190 188
350 347 346 343 331 330 296 202 209 191 217 22 29 304 146 150 173 200 181 205 186 204 214 215 230 220 223 215 307 307 310 287 198 22 242 231 247 240 171 215 214 206 199 191 184
351 347 346 343 4 331 303 28 43 346 245 135 101 217 231 253 194 167 181 206 203 229 212 197 235 264 342 305 256 255 256 255 271 145 251 243 233 227 216 199 220 221 206 198 191
349 345 345 349 113 329 53 45 335 314 255 143 100 33 100 191 226 166 199 222 211 240 201 266 29 64 252 227 244 239 256 252 254 169 242 265 261 237 226 198 210 227 226 213 195
347 344 348 270 268 5 117 335 326 294 253 130 167 106 152 194 213 174 197 226 232 258 228 259 40 200 241 253 229 260 210 241 273 253 252 203 251 216 221 224 216 222 225 227 203
346 341 1 24 327 318 333 320 317 239 234 94 92 113 149 237 117 177 219 236 264 220 262 192 190 217 231 236 205 278 56 254 261 250 252 252 241 280 297 205 220 219 220 218 216
345 341 62 291 245 0 330 313 254 231 131 135 193 266 184 188 183 108 189 244 289 273 230 287 161 281 275 79 235 288 247 249 243 250 241 240 261 261 242 221 221 229 235 201 206
346 345 245 324 344 334 326 252 243 267 165 149 155 235 344 244 149 210 175 206 244 220 232 216 232 211 229 254 224 223 249 257 226 222 234 236 223 233 295 253 210 246 253 194 176
346 299 280 272 320 322 296 256 263 58 256 122 231 212 243 286 153 182 203 185 202 317 290 284 202 199 172 256 314 196 239 258 291 289 316 117 223 240 250 257 298 298 295 314 167
354 243 239 330 312 309 272 244 333 64 46 244 182 230 175 197 277 257 360 18 45 343 314 324 173 151 224 290 284 279 228 261 282 277 274 280 262 247 217 222 233 247 240 221 214
336 278 123 316 291 276 253 262 43 42 295 244 259 273 229 149 243 221 162 69 258 343 317 4 298 294 338 290 250 258 306 280 231 256 268 274 258 282 149 178 308 342 313 223 213
300 268 76 330 269 245 249 63 147 105 285 275 293 239 260 219 278 248 299 105 309 311 301 316 270 283 208 254 288 238 244 247 339 296 294 289 268 59 190 302 4 330 326 18 333
287 270 34 329 248 237 269 140 4 160 217 228 294 302 270 193 270 255 266 69 5 310 288 58 304 285 284 308 318 283 286 295 294 285 335 319 291 320 292 286 289 298 352 90 92
305 297 52 288 263 215 93 180 232 198 199 218 233 264 174 255 264 252 243 102 15 325 349 1 245 267 256 240 224 245 251 300 299 300 282 289 272 337 46 349 306 27 356 344 196
287 270 156 232 325 307 198 217 184 249 233 262 295 269 243 245 224 267 227 148 281 305 42 318 265 262 277 306 327 291 266 271 285 277 280 278 297 310 309 287 308 9 327 345 330
279 70 355 320 97 322 280 326 252 185 250 237 215 252 254 253 251 232 240 239 217 156 230 253 268 266 263 270 287 285 279 278 270 264 264 280 288 299 309 317 321 344 351 341 320
319 337 307 281 287 267 190 243 257 195 256 223 252 290 261 261 272 290 345 263 266 188 236 226 271 281 277 277 273 271 268 265 263 266 270 274 274 283 285 342 348 353 328 341 333
5 257 281 150 227 254 251 238 254 322 180 284 314 290 242 295 345 342 321 303 288 285 271 263 267 265 266 270 271 260 256 256 260 264 264 264 277 291 314 345 342 325 357 347 336